Torna al catalogo

H-1 R/B

MABES

AttivoLEO
NORAD 16910·ROCKET BODY·🇯🇵 Japan

Lanciato Aug 12, 1986 da Tanegashima Space Center

Loading…

Prossimi Passaggi (prossime 24 ore)

TLE

AggiornatoSource: Space-Track

Epoca: Sep 14, 2026, 11:14 UTC

1 16910U 86061C   26257.46821288 -.00000057  00000-0  30311-3 0  9993
2 16910  50.0032 148.1574 0072659 133.8708  36.0043 12.32659293805458

Traccia H-1 R/B in tempo reale con AllMySat

Download on the App Store